UFO 4 (USA 108)

Last updated on Jan. 19, 2020, 4:37 a.m. UTC

1 23467U 95003A   20018.77101781 -.00000029  00000-0  00000+0 0  9993
2 23467   9.8789  21.6997 0002218 325.3018 220.5574  1.00277164 91489
UTC
Height (km)
Latitude
Longitude
Inclination
Orbital Period
UTC large
Height (km)
Speed (km/s)
/
Latitude / Longitude
Inclination (degrees)
Orbital Period (minutes)
Azimuth
Elevation
Range (km)
Doppler Factor
iOS Compass Heading
iOS Angle

Next 30 passes for location: Hong Kong

Rise time Rise Azimuth (degrees) Set time Set Azimuth (degrees) Duration Max altitude (degrees)

No matching passes for this satellites